TimeMDT,TemperatureF,Dew PointF,Humidity,Sea Level PressureIn,VisibilityMPH,Wind Direction,Wind SpeedMPH,Gust SpeedMPH,PrecipitationIn,Events,Conditions,WindDirDegrees,DateUTC
12:54 AM,25.0,8.1,49,30.14,10.0,Calm,Calm,-,N/A,,Clear,0,2013-03-26 06:54:00
1:54 AM,23.0,10.0,58,30.12,10.0,SSE,3.5,-,N/A,,Overcast,150,2013-03-26 07:54:00
2:54 AM,21.9,10.9,63,30.11,10.0,SE,5.8,-,N/A,,Scattered Clouds,140,2013-03-26 08:54:00
3:54 AM,25.0,12.0,58,30.06,10.0,Calm,Calm,-,N/A,,Scattered Clouds,0,2013-03-26 09:54:00
4:54 AM,23.0,10.9,60,30.06,10.0,Calm,Calm,-,N/A,,Clear,0,2013-03-26 10:54:00
5:54 AM,21.9,10.9,63,30.07,10.0,Calm,Calm,-,N/A,,Clear,0,2013-03-26 11:54:00
6:54 AM,21.9,10.0,60,30.06,10.0,Calm,Calm,-,N/A,,Clear,0,2013-03-26 12:54:00
7:54 AM,23.0,12.0,63,30.09,10.0,Calm,Calm,-,N/A,,Overcast,0,2013-03-26 13:54:00
8:54 AM,24.1,12.9,62,30.09,10.0,Calm,Calm,-,N/A,,Overcast,0,2013-03-26 14:54:00
9:54 AM,32.0,16.0,52,30.05,10.0,SSE,6.9,-,N/A,,Partly Cloudy,150,2013-03-26 15:54:00
10:54 AM,39.9,17.1,40,29.99,10.0,Calm,Calm,-,N/A,,Mostly Cloudy,0,2013-03-26 16:54:00
11:54 AM,43.0,19.9,40,29.96,10.0,SSE,5.8,-,N/A,,Mostly Cloudy,150,2013-03-26 17:54:00
12:54 PM,44.1,19.0,37,29.95,10.0,North,5.8,-,N/A,,Mostly Cloudy,350,2013-03-26 18:54:00
1:54 PM,45.0,21.0,39,29.95,10.0,Variable,4.6,-,N/A,,Mostly Cloudy,0,2013-03-26 19:54:00
2:54 PM,46.0,19.9,35,29.94,10.0,West,6.9,-,N/A,,Mostly Cloudy,280,2013-03-26 20:54:00
3:54 PM,46.9,19.9,34,29.91,10.0,Variable,5.8,-,N/A,,Overcast,0,2013-03-26 21:54:00
4:54 PM,50.0,18.0,28,29.88,10.0,WNW,12.7,20.7,N/A,,Mostly Cloudy,290,2013-03-26 22:54:00
5:54 PM,46.9,19.0,33,29.91,10.0,NW,10.4,-,N/A,,Overcast,310,2013-03-26 23:54:00
6:54 PM,42.1,24.1,49,29.99,10.0,West,12.7,-,N/A,,Overcast,260,2013-03-27 00:54:00
7:54 PM,36.0,30.0,79,30.01,10.0,SSE,8.1,-,N/A,,Overcast,160,2013-03-27 01:54:00
8:54 PM,34.0,28.9,82,30.03,10.0,South,4.6,-,N/A,,Mostly Cloudy,190,2013-03-27 02:54:00
9:54 PM,34.0,28.9,82,30.00,10.0,SE,6.9,-,N/A,,Clear,140,2013-03-27 03:54:00
10:54 PM,33.1,28.9,85,29.97,10.0,South,6.9,-,N/A,,Overcast,180,2013-03-27 04:54:00
11:54 PM,30.9,27.0,85,29.97,10.0,SSW,5.8,-,N/A,,Partly Cloudy,200,2013-03-27 05:54:00